Date,TemperatureHighF,TemperatureAvgF,TemperatureLowF,DewpointHighF,DewpointAvgF,DewpointLowF,HumidityHigh,HumidityAvg,HumidityLow,PressureMaxIn,PressureMinIn,WindSpeedMaxMPH,WindSpeedAvgMPH,GustSpeedMaxMPH,PrecipitationSumIn
2013-1-1,53.5,41.4,36.2,45.3,41.0,29.8,99,99,93,29.91,29.91,13,1,18,0.84
2013-1-2,41.4,38.6,36.5,41.1,38.1,35.7,99,98,93,29.91,29.91,11,2,18,0.07
2013-1-3,46.7,37.5,30.7,36.0,33.3,28.1,99,86,57,29.91,29.91,5,0,8,0.00
2013-1-4,42.5,32.4,25.1,31.2,28.0,24.3,97,85,62,29.91,29.91,6,1,9,0.00
2013-1-5,48.6,35.2,21.6,40.8,30.8,20.7,99,85,59,29.91,29.91,5,0,9,0.04
2013-1-6,47.6,41.4,38.5,43.1,39.6,34.1,99,93,80,29.91,29.91,9,3,20,0.02
2013-1-7,44.0,33.7,27.9,38.3,31.0,26.9,98,90,78,29.91,29.91,7,1,12,0.00
2013-1-8,53.5,32.9,24.8,42.8,30.4,23.6,99,91,66,29.91,29.91,3,0,7,0.00
2013-1-9,48.1,41.4,37.3,47.8,40.8,35.7,99,98,92,29.91,29.91,3,0,6,0.12
2013-1-10,61.9,50.7,46.7,59.5,50.1,46.4,99,98,91,29.91,29.91,5,1,9,0.00
2013-1-11,64.6,56.5,53.2,64.3,56.2,52.9,99,99,99,29.91,29.91,13,2,26,0.03
2013-1-12,71.7,64.5,56.7,70.2,64.0,56.4,99,98,94,29.91,29.91,9,2,18,0.02
2013-1-13,67.9,61.2,53.1,66.1,60.6,52.8,99,98,88,29.91,29.91,10,2,20,0.98
2013-1-14,61.6,47.0,40.0,61.3,46.7,39.7,99,99,99,29.91,29.91,9,3,17,1.34
2013-1-15,42.6,41.0,39.9,42.3,40.7,39.6,99,99,99,29.91,29.91,7,2,13,2.08
2013-1-16,47.7,43.4,41.6,47.4,43.1,41.3,99,99,99,29.91,29.91,9,1,15,0.54
2013-1-17,42.5,37.4,31.5,42.2,37.1,31.3,99,99,95,29.91,29.91,7,3,16,0.85
2013-1-18,45.4,33.7,22.1,40.8,32.0,21.9,99,94,74,29.91,29.91,3,0,7,0.28
2013-1-19,51.3,35.9,25.6,43.0,33.7,25.4,99,92,67,29.91,29.91,8,1,14,0.00
2013-1-20,58.1,44.1,33.8,44.9,38.3,33.0,98,81,58,29.91,29.91,8,2,14,0.00
2013-1-21,48.0,36.5,26.2,33.5,26.1,16.5,99,69,42,29.91,29.91,13,3,20,0.00
2013-1-22,34.4,26.3,21.8,16.3,9.8,2.8,61,50,36,29.91,29.91,8,3,15,0.00
2013-1-23,44.2,30.9,23.2,33.4,16.4,9.2,76,55,44,29.91,29.91,10,2,16,0.00
2013-1-24,42.3,36.3,27.6,36.4,25.7,14.7,85,66,41,29.91,29.91,12,5,20,0.00
2013-1-25,33.9,30.3,26.3,33.6,26.9,14.5,99,88,59,29.91,29.91,6,1,12,0.25
2013-1-26,45.7,36.9,30.5,39.5,34.6,30.2,99,92,74,29.91,29.91,7,1,12,0.02
2013-1-27,47.7,37.4,24.8,43.3,35.1,24.6,99,92,76,29.91,29.91,6,0,8,0.02
2013-1-28,54.6,44.1,39.4,53.0,42.8,39.1,99,95,81,29.91,29.91,8,1,16,0.03
2013-1-29,66.8,52.2,44.5,62.1,51.3,44.2,99,97,85,29.91,29.91,5,0,9,0.00
2013-1-30,67.7,57.2,43.0,66.1,56.7,41.1,99,98,93,29.91,29.91,18,5,35,2.61
2013-1-31,43.0,36.6,33.3,40.3,30.8,27.2,94,80,64,29.91,29.91,14,9,29,0.00
2013-2-1,40.0,30.1,20.9,36.8,20.7,12.0,99,69,49,29.91,29.91,14,4,25,0.01
2013-2-2,34.6,28.9,21.7,34.3,27.0,20.0,99,93,82,29.91,29.91,12,3,21,0.02
2013-2-3,41.9,36.0,29.7,39.3,32.8,26.5,99,89,69,29.91,29.91,12,4,22,0.03
2013-2-4,46.5,31.8,23.6,37.4,28.4,23.0,99,88,60,29.91,29.91,7,1,10,0.00
2013-2-5,43.1,42.9,42.5,40.0,36.8,34.8,89,79,73,29.91,29.91,7,4,13,0.00
2013-2-25,52.5,52.2,51.8,41.7,39.8,38.5,68,63,59,29.84,29.78,9,3,12,0.00
2013-2-26,61.2,49.9,43.3,54.4,45.5,38.7,97,85,68,29.78,29.43,25,8,35,0.43
2013-2-27,45.5,41.0,39.4,40.3,37.3,34.7,93,87,74,29.84,29.68,20,8,24,0.02
2013-2-28,40.3,37.5,35.5,35.0,31.5,28.5,93,79,65,29.98,29.80,12,5,20,0.01
2013-3-1,43.2,38.2,34.8,37.2,34.4,31.7,94,87,71,29.97,29.91,7,1,12,0.01
2013-3-2,39.2,35.2,24.2,35.2,30.7,19.2,97,84,72,30.05,29.91,13,3,21,0.03
2013-3-3,36.7,30.5,24.5,25.7,22.0,18.8,85,71,57,30.77,29.94,8,2,14,0.00
2013-3-4,57.5,36.5,17.8,33.6,25.7,15.4,94,68,34,30.17,29.98,9,1,12,0.00
2013-3-5,47.1,40.3,33.9,47.1,38.1,29.0,100,92,63,30.01,29.62,24,6,33,1.83
2013-3-6,35.3,32.7,30.0,33.3,30.7,26.0,100,92,81,30.24,29.83,13,3,17,0.04
2013-3-7,41.0,34.8,30.4,38.9,31.6,16.1,100,88,78,30.73,30.00,8,1,10,0.03
2013-3-8,61.4,42.2,27.5,41.3,33.0,25.3,93,72,43,30.39,30.27,11,2,15,0.00
2013-3-9,68.8,48.8,30.4,45.6,37.4,27.5,91,68,36,30.30,30.16,11,1,15,0.00
2013-3-10,75.0,57.2,41.7,51.8,43.8,38.8,92,64,36,30.16,29.98,8,0,9,0.00
2013-3-11,66.2,56.2,47.5,57.5,50.8,41.1,100,83,56,29.99,29.75,19,4,28,0.73
2013-3-12,59.7,47.1,39.6,45.8,38.7,34.1,95,74,51,30.09,29.87,10,3,15,0.01
2013-3-13,46.7,39.9,33.7,36.5,28.2,20.5,88,64,46,30.30,30.05,17,4,33,0.00
2013-3-14,52.2,42.9,31.0,33.0,26.3,19.7,70,53,37,30.38,30.22,11,3,15,0.00
2013-3-15,68.3,49.5,32.4,50.5,39.9,29.2,90,71,49,30.24,29.89,16,3,23,0.00
2013-3-16,77.8,65.3,53.6,57.7,52.7,47.6,83,64,49,29.91,29.77,22,8,29,0.00
2013-3-17,74.1,64.1,54.4,59.7,54.9,50.9,89,73,52,29.97,29.83,18,3,25,0.00
2013-3-18,57.2,53.5,49.3,57.2,52.2,36.8,100,95,83,29.90,29.75,15,1,64,0.76
2013-3-19,59.6,50.0,38.3,53.1,33.7,19.3,100,59,26,30.12,29.83,16,4,24,0.01
2013-3-20,57.9,44.1,32.5,38.0,26.0,18.4,85,52,27,30.15,29.86,18,4,29,0.00
2013-3-21,44.6,33.7,24.7,22.7,17.3,12.3,65,51,36,30.01,29.92,17,3,22,0.00
2013-3-22,48.6,37.0,23.1,36.2,25.5,18.3,85,64,38,30.06,29.98,9,1,12,0.00
2013-3-23,57.4,46.8,40.4,48.6,41.3,33.5,93,82,70,30.02,29.77,8,1,12,0.01
2013-3-24,56.9,49.8,42.4,55.0,48.2,36.5,100,95,75,29.79,29.36,22,3,31,1.13
2013-3-25,42.4,35.6,31.9,38.3,32.4,29.7,98,88,69,30.00,29.58,21,9,32,0.03
2013-3-26,40.7,35.2,31.5,35.0,31.7,30.1,98,88,70,30.26,29.99,12,3,20,0.02
2013-3-27,54.1,40.9,31.3,36.9,31.3,26.6,94,71,43,30.32,30.24,10,2,14,0.00
2013-3-28,61.4,42.5,25.2,37.3,28.6,22.7,94,63,27,30.34,30.23,11,2,16,0.00
2013-3-29,48.8,41.0,30.1,44.4,36.5,26.8,99,84,61,30.34,30.23,9,1,13,0.20
2013-3-30,65.0,51.4,42.3,54.7,47.7,40.9,100,88,64,31.50,30.00,8,1,11,0.17
2013-3-31,60.2,55.4,51.4,58.6,54.9,51.3,100,98,89,30.00,29.85,15,3,20,0.63
2013-4-1,66.3,52.8,41.7,54.4,46.0,37.8,100,81,47,30.07,29.89,17,3,22,0.00
2013-4-2,62.3,48.7,36.1,39.1,29.8,23.0,74,49,27,30.22,30.07,10,2,14,0.00
2013-4-3,65.5,49.7,33.0,38.5,31.2,24.9,82,51,29,30.27,30.17,14,2,17,0.00
2013-4-4,50.7,45.5,42.5,43.6,37.5,25.6,98,76,40,30.18,29.97,12,3,15,0.68
2013-4-5,70.6,53.3,41.3,51.0,44.6,41.3,100,76,39,30.08,29.96,10,1,16,0.00
2013-4-6,74.0,56.5,37.4,52.9,44.7,34.8,92,68,38,30.18,30.04,13,1,16,0.00
2013-4-7,75.3,61.0,46.3,54.6,48.2,41.4,89,64,43,30.14,30.02,18,4,25,0.00
2013-4-8,77.6,63.6,50.7,61.0,54.7,48.3,92,74,52,30.09,29.99,20,4,31,0.00
2013-4-9,82.3,68.2,53.0,65.4,59.2,50.7,95,74,52,30.18,30.02,17,3,23,0.00
2013-4-10,87.8,71.7,55.9,68.2,62.1,53.7,96,74,48,30.11,29.88,16,2,22,0.00
2013-4-11,85.8,73.2,64.5,68.8,63.3,59.8,100,73,49,29.90,29.64,22,3,32,0.86
2013-4-12,68.6,60.1,53.8,64.2,53.0,43.4,100,80,44,29.93,29.58,15,4,21,0.21
2013-4-13,75.6,60.0,42.9,52.7,46.3,40.9,95,64,33,30.06,29.93,13,2,18,0.00
2013-4-14,73.7,59.8,43.4,58.7,50.0,40.6,91,72,49,30.04,29.92,17,1,24,0.02
2013-4-15,84.3,68.4,55.8,68.4,60.8,54.1,98,78,54,30.07,29.90,10,1,14,0.00
2013-4-16,86.9,70.6,55.5,72.4,63.9,53.9,97,81,59,30.22,30.07,11,1,15,0.00
2013-4-17,75.3,66.8,61.1,68.6,65.0,61.1,100,94,78,30.25,30.04,15,2,21,0.18
2013-4-18,87.8,70.6,57.0,70.9,62.4,57.0,100,79,45,30.04,29.81,18,3,25,0.00
2013-4-19,73.0,60.5,48.0,66.9,54.3,37.1,100,80,65,30.05,29.66,18,6,30,1.25
2013-4-20,68.0,51.4,35.4,45.8,38.3,33.2,95,65,33,30.25,30.05,10,2,17,0.00
2013-4-21,75.8,55.4,38.2,51.5,43.1,35.6,93,66,35,30.35,30.22,10,1,13,0.00
2013-4-22,81.0,61.8,44.0,56.8,48.7,39.6,88,65,36,30.30,30.11,11,2,17,0.00
2013-4-23,77.1,61.1,44.8,61.9,50.9,42.1,92,71,47,30.19,29.99,10,1,14,0.00
2013-4-24,71.1,59.1,47.5,65.8,55.7,43.2,100,89,71,30.20,29.94,24,5,37,0.24
2013-4-25,73.0,55.8,40.3,60.0,45.1,39.3,100,71,36,30.32,30.20,8,1,12,0.00
2013-4-26,72.6,56.2,39.2,55.3,46.2,36.6,95,72,42,30.55,30.25,12,1,16,0.01
2013-4-27,58.8,55.3,53.0,58.7,55.0,52.1,100,99,90,30.32,30.07,6,0,8,0.54
2013-4-28,60.0,56.5,53.0,60.0,56.5,53.0,100,100,100,30.09,29.90,15,1,26,1.43
2013-4-29,76.7,63.2,54.2,68.0,60.1,45.2,100,90,65,30.01,29.91,9,1,12,0.00
2013-4-30,88.0,67.8,50.9,86.8,60.9,50.5,100,81,43,30.04,29.93,7,0,10,0.00
2013-5-1,84.4,70.7,58.1,69.1,62.4,57.1,99,76,56,30.17,30.04,12,3,18,0.00
2013-5-2,85.0,70.4,57.3,69.4,61.3,55.1,94,74,53,30.16,30.06,11,2,15,0.00
2013-5-3,82.1,68.4,58.3,65.4,58.9,54.0,94,73,49,30.09,29.94,17,5,21,0.00
2013-5-4,63.2,59.5,55.0,58.6,53.8,41.4,100,83,55,29.94,29.85,16,5,24,0.85
2013-5-5,61.9,56.1,53.2,61.6,55.9,52.8,100,99,93,29.87,29.72,14,3,20,0.81
2013-5-6,66.0,56.8,50.4,59.5,53.7,50.4,100,90,71,29.87,29.73,11,2,14,0.29
2013-5-7,72.2,59.8,48.6,62.5,56.0,48.6,100,88,64,29.93,29.83,7,1,9,0.05
2013-5-8,77.3,64.8,57.8,70.5,62.4,57.8,100,92,70,30.02,29.88,11,1,18,0.01
2013-5-9,83.6,68.9,55.9,72.3,64.1,55.7,100,86,61,30.07,29.94,10,1,17,0.02
2013-5-10,74.0,66.9,58.2,68.8,63.0,57.3,100,88,72,30.03,29.88,15,2,25,0.00
2013-5-11,78.5,68.2,60.0,70.6,63.3,55.1,100,85,65,29.96,29.80,12,4,20,0.00
2013-5-12,67.5,60.4,52.0,55.6,42.9,35.4,86,54,33,30.08,29.94,12,3,20,0.00
2013-5-13,70.5,56.2,40.8,48.6,42.5,35.7,92,64,33,30.17,30.07,12,2,20,0.00
2013-5-14,79.1,62.1,42.9,63.9,52.3,39.9,100,72,52,30.17,29.97,15,4,22,0.00
2013-5-15,88.9,74.9,62.7,71.6,64.5,59.2,90,72,50,30.08,29.92,13,4,20,0.00
2013-5-16,87.0,73.0,61.0,72.1,65.6,58.7,96,79,56,30.01,29.91,11,2,15,0.00
2013-5-17,84.1,72.7,62.6,74.7,68.7,61.3,100,88,61,30.05,29.95,6,0,9,0.10
2013-5-18,75.9,71.2,67.1,74.5,70.7,67.1,100,98,89,30.01,29.94,8,0,12,0.17
2013-5-19,80.2,70.2,65.4,77.7,69.8,65.4,100,99,86,30.00,29.93,11,1,16,0.03
2013-5-20,90.3,75.1,61.9,79.7,70.9,60.8,100,88,65,30.06,29.92,7,0,10,0.00
2013-5-21,93.7,77.4,66.1,83.2,72.5,65.8,100,86,62,29.99,29.85,13,1,20,0.00
2013-5-22,87.2,74.3,64.9,81.3,70.2,64.8,100,88,66,29.91,29.76,12,2,20,0.00
2013-5-23,83.9,72.6,64.9,71.7,67.1,60.4,100,84,57,29.94,29.81,15,3,25,0.02
2013-5-24,73.0,65.0,57.8,70.3,54.7,48.5,100,71,45,30.21,29.94,12,4,20,0.00
2013-5-25,80.1,63.9,47.2,61.8,51.9,44.5,100,68,33,30.27,30.09,8,1,12,0.00
2013-5-26,83.8,69.0,56.5,66.8,59.8,53.8,99,75,48,30.22,30.10,7,0,10,0.02
2013-5-27,87.0,72.8,57.2,70.3,63.8,55.3,96,75,52,30.15,30.01,13,2,20,0.00
2013-5-28,89.7,76.5,63.1,73.7,68.0,61.6,97,77,52,30.11,29.99,12,2,20,0.00
2013-5-29,93.1,78.4,63.1,92.8,71.6,61.1,100,81,55,30.14,30.01,12,1,18,0.00
2013-5-30,95.5,78.9,64.1,78.0,70.2,61.6,96,77,48,30.16,30.01,8,0,12,0.00
2013-5-31,92.3,73.7,64.3,75.0,67.6,62.6,97,83,48,30.10,29.99,12,2,20,0.00
2013-8-19,77.0,74.7,72.8,73.1,71.6,70.7,93,90,87,29.93,29.91,1,0,4,0.12
2013-8-20,90.8,77.3,68.6,78.9,72.3,66.8,97,85,59,30.01,29.92,5,0,13,0.08
2013-8-21,83.8,76.0,69.9,76.2,72.4,67.9,96,89,77,30.23,29.97,6,0,9,0.03
2013-8-22,90.2,79.1,70.1,78.2,73.2,68.6,97,83,61,30.19,30.05,6,0,7,2.43
2013-8-23,87.6,76.6,71.8,76.9,72.0,68.7,100,86,62,30.11,30.04,12,0,21,0.18
2013-8-24,92.5,78.4,67.7,90.1,69.1,62.7,100,76,39,30.24,30.10,9,1,14,0.00
2013-8-25,89.3,76.0,65.3,86.2,65.6,61.1,100,72,47,30.41,30.24,6,0,9,0.00
2013-8-26,89.0,73.7,62.2,75.4,65.9,36.1,100,78,50,30.33,30.15,6,0,9,0.00
2013-8-27,88.3,76.1,66.4,88.3,72.4,60.5,100,89,64,30.17,30.05,6,0,10,0.00
2013-8-28,91.2,79.6,70.1,76.9,72.4,67.0,96,80,58,30.08,29.99,7,0,10,0.00
2013-8-29,92.3,81.4,74.6,79.0,74.4,71.9,94,80,56,30.07,29.94,8,1,12,0.00
2013-8-30,93.1,80.4,70.0,93.1,76.4,66.7,100,88,65,30.04,29.91,7,1,12,0.00
2013-8-31,91.9,81.4,74.6,91.2,75.1,70.8,100,82,56,30.00,29.85,18,2,28,0.58
2013-9-1,89.3,78.2,71.5,77.1,73.0,69.7,97,85,63,29.92,29.83,13,2,20,0.22
2013-9-2,85.5,77.6,71.6,77.6,72.9,68.6,99,86,71,29.96,29.84,10,1,15,0.00
2013-9-3,88.5,77.0,68.6,75.2,70.4,66.8,99,81,56,30.03,29.87,9,1,17,0.75
2013-9-4,88.2,74.8,63.4,87.1,66.7,59.5,100,77,52,30.13,30.02,6,0,10,0.00
2013-9-5,87.8,73.8,62.4,86.5,65.0,57.4,100,76,38,30.17,30.11,7,1,10,0.00
2013-9-6,90.1,75.8,63.6,85.7,65.4,59.7,100,72,38,30.20,30.07,8,1,13,0.00
2013-9-7,88.7,75.4,63.6,72.8,66.8,59.3,90,76,52,30.13,29.99,8,1,12,0.00
2013-9-8,89.8,77.1,67.1,88.5,69.7,63.9,100,79,53,30.03,29.95,8,0,10,0.00
2013-9-9,93.2,79.1,67.1,83.4,70.2,63.7,100,76,48,30.10,30.01,8,0,12,0.00
2013-9-10,94.2,80.1,68.7,89.7,70.9,65.0,100,75,46,30.22,30.10,8,0,12,0.00
2013-9-11,92.4,79.2,70.0,85.2,71.5,66.0,100,78,52,30.23,30.09,9,1,13,0.00
2013-9-12,88.8,76.9,70.1,76.8,70.7,67.0,93,82,60,30.10,29.90,18,1,26,0.51
2013-9-13,78.8,70.5,62.2,68.7,60.8,53.5,94,73,45,29.99,29.89,12,2,16,0.00
2013-9-14,80.2,65.3,53.6,72.5,54.9,48.9,100,71,44,30.08,29.97,8,1,12,0.00
2013-9-15,85.8,67.7,53.8,85.8,60.0,49.4,100,78,50,30.17,30.07,9,0,12,0.00
2013-9-16,83.3,70.7,61.0,83.3,66.0,57.1,100,86,58,30.17,30.09,9,1,13,0.00
2013-9-17,84.5,71.8,63.6,84.4,68.2,59.1,100,89,63,30.21,30.12,7,0,10,0.00
2013-9-18,73.9,68.7,64.8,67.3,63.3,60.6,88,83,72,30.22,30.12,6,0,8,0.01
2013-9-19,86.2,72.0,61.0,83.6,66.5,57.8,100,84,58,30.18,30.04,9,1,14,0.00
2013-9-20,86.4,74.1,63.9,70.0,65.9,60.6,100,77,51,30.07,29.88,10,1,14,0.00
2013-9-21,72.1,68.5,62.4,68.2,65.4,59.4,97,90,81,29.88,29.70,10,1,15,1.87
2013-9-22,77.7,65.1,53.5,60.8,56.8,50.4,94,76,48,29.93,29.81,8,1,12,0.00
2013-9-23,83.6,66.8,53.4,83.6,61.5,49.6,100,84,57,30.02,29.92,7,0,10,0.00
2013-9-24,84.3,70.3,56.8,83.6,63.4,52.1,100,80,54,30.04,29.88,8,0,12,0.00
2013-9-25,72.6,69.1,66.4,68.1,66.2,64.3,96,91,84,29.89,29.81,5,0,6,0.21
2013-9-26,81.6,69.8,63.4,68.5,63.7,60.1,96,82,51,30.02,29.86,6,0,9,0.00
2013-9-27,83.6,68.0,57.0,67.7,60.1,53.0,93,77,47,30.14,30.02,5,0,7,0.00
2013-9-28,82.4,67.2,48.2,66.7,59.6,44.2,100,78,54,30.22,30.08,5,0,7,0.00
2013-9-29,73.9,66.2,60.4,64.7,60.6,57.0,93,83,63,30.13,29.98,6,0,9,0.00
2013-9-30,77.1,65.8,57.0,65.6,59.6,53.8,100,82,58,30.08,29.98,7,0,10,0.00
2013-10-1,81.6,67.8,56.5,81.6,62.1,53.0,100,83,59,30.15,30.03,10,1,13,0.00
2013-10-2,81.8,70.0,59.3,71.0,63.8,56.2,93,81,63,30.17,30.05,6,0,8,0.00
2013-10-3,86.6,73.1,64.9,85.7,67.2,62.3,100,83,54,30.12,30.03,8,0,12,0.00
2013-10-4,87.0,72.8,62.4,70.8,65.3,58.5,91,78,52,30.15,30.06,6,0,10,0.00
2013-10-5,89.4,73.6,59.8,73.2,65.7,54.6,92,77,53,30.12,29.98,7,0,9,0.00
2013-10-6,87.7,73.7,63.0,82.0,65.1,59.5,100,76,48,29.99,29.78,15,2,21,0.04
2013-10-7,72.5,63.0,56.5,67.7,53.8,47.3,91,73,46,30.06,29.82,12,2,22,0.19
2013-10-8,77.5,61.6,48.8,77.4,51.4,44.2,100,71,45,30.13,30.05,10,1,14,0.00
2013-10-9,79.1,65.2,53.2,79.1,58.2,48.8,100,79,51,30.19,30.09,6,0,9,0.00
2013-10-10,78.0,63.8,51.0,78.0,54.2,46.4,100,73,46,30.14,30.02,8,0,12,0.00
2013-10-11,79.8,64.1,50.9,78.9,56.0,46.1,100,76,50,30.08,29.97,7,0,12,0.00
2013-10-12,80.3,66.1,54.3,80.2,58.0,50.5,100,77,46,30.10,29.99,8,0,12,0.00
2013-10-13,77.1,66.9,58.6,65.2,60.7,54.1,94,81,62,30.20,30.09,7,1,12,0.00
2013-10-14,83.8,69.9,58.7,79.5,62.1,53.8,100,78,49,30.22,30.07,9,1,13,0.00
2013-10-15,75.9,67.8,61.9,65.8,61.9,58.5,93,82,66,30.11,29.99,6,0,7,0.00
2013-10-16,68.7,64.6,59.9,62.7,60.3,56.6,93,86,76,30.04,29.93,11,1,15,0.01
2013-10-17,67.6,63.2,57.9,66.9,60.4,51.3,99,91,76,29.99,29.83,13,2,20,0.52
2013-10-18,67.9,57.0,47.9,53.8,49.8,44.5,94,78,50,30.06,29.93,6,0,8,0.00
2013-10-19,64.6,55.2,48.6,54.2,49.9,43.6,93,83,66,30.01,29.88,15,2,24,0.00
2013-10-20,68.4,51.1,37.5,48.7,41.6,33.1,91,72,38,30.10,30.00,7,0,9,0.00
2013-10-21,68.5,53.2,39.0,53.2,44.2,34.6,89,73,42,30.11,29.97,12,1,20,0.00
2013-10-22,64.0,56.7,50.8,54.6,50.9,47.8,91,81,68,30.00,29.83,7,1,10,0.00
2013-10-23,53.1,48.1,37.9,49.3,41.0,32.3,91,77,59,30.08,29.78,13,2,20,0.00
2013-10-24,51.7,43.8,35.9,41.4,36.6,29.5,91,76,61,30.24,30.06,15,2,22,0.00
2013-10-25,55.6,42.2,32.7,35.4,30.4,26.2,87,65,37,30.42,30.24,12,1,15,0.00
2013-10-26,57.1,43.6,28.3,41.5,33.4,15.7,100,69,47,30.31,30.07,15,4,23,0.00
2013-10-27,62.0,55.6,49.8,53.2,45.5,37.1,86,69,56,30.13,30.06,11,2,15,0.00
2013-10-28,66.5,59.0,53.2,59.5,55.1,50.4,98,87,68,30.26,30.10,12,2,17,0.00
2013-10-29,74.3,62.2,53.5,61.3,56.8,44.1,99,84,55,30.32,30.20,10,1,14,0.00
2013-10-30,78.9,67.1,59.4,77.8,60.7,57.2,100,81,58,30.25,30.09,11,2,17,0.00
2013-10-31,71.5,64.8,58.3,65.3,60.3,56.6,97,86,73,30.12,29.66,21,3,31,0.01
2013-11-1,72.0,65.5,56.4,67.0,59.1,49.6,100,81,54,29.79,29.65,23,5,50,0.40
2013-11-2,62.5,54.1,44.8,51.9,45.7,39.9,94,75,46,30.07,29.77,15,1,24,0.01
2013-11-3,62.5,50.1,39.5,53.9,43.1,27.5,100,79,38,30.29,30.06,10,1,12,0.00
2013-11-4,66.9,50.7,36.8,66.9,48.8,10.1,100,94,60,30.40,30.29,7,1,10,0.00
2013-11-5,69.9,55.3,44.4,69.9,55.3,44.4,100,100,100,30.43,30.29,6,0,8,0.00
2013-11-6,74.5,59.2,-25.7,74.5,59.2,-47.8,100,100,91,30.30,30.06,182,2,20,0.00
2013-11-7,64.4,53.3,40.4,64.4,53.3,40.4,100,100,100,30.26,30.03,15,3,23,0.40
2013-11-8,58.2,42.8,30.7,58.2,42.8,30.7,100,100,100,30.37,30.25,10,1,13,0.00
2013-11-9,55.0,42.3,30.2,55.0,42.3,30.2,100,100,100,30.33,30.18,13,2,20,0.00
2013-11-10,66.0,50.8,37.1,65.9,50.8,37.1,100,100,100,30.31,30.21,9,2,14,0.00
2013-11-11,63.9,47.2,31.5,63.9,47.2,31.4,100,100,100,30.33,29.95,10,1,14,0.00
2013-11-12,50.6,40.9,29.1,50.6,40.9,29.1,100,100,100,30.54,30.11,17,4,22,0.00
2013-11-13,46.8,32.9,20.0,46.8,32.9,20.0,100,100,100,30.63,30.45,9,1,12,0.00
2013-11-14,56.1,37.2,21.0,56.1,37.2,21.0,100,100,100,30.47,30.22,10,1,20,0.00
2013-11-15,46.5,39.4,29.5,46.5,39.4,29.5,100,100,100,30.31,30.16,7,0,10,0.09
2013-11-16,65.4,52.9,45.0,65.4,52.9,44.9,100,100,100,30.23,30.10,8,0,10,0.00
2013-11-17,65.0,56.2,48.3,65.0,56.2,48.3,100,100,100,30.11,29.83,16,1,30,0.92
2013-11-18,64.6,57.6,45.2,64.6,57.6,45.2,100,100,100,30.16,29.86,10,2,15,4.83
2013-11-19,56.6,45.8,36.0,56.6,45.8,35.9,100,100,100,30.25,30.16,9,2,13,0.00
2013-11-20,61.1,45.6,32.4,61.0,45.6,32.4,100,100,100,30.31,30.18,8,1,12,0.00
2013-11-21,62.4,50.7,38.6,62.4,50.7,38.6,100,100,100,30.37,30.26,10,1,13,0.00
2013-11-22,56.4,53.9,51.0,56.4,53.9,51.0,100,100,100,30.31,30.19,10,1,13,0.07
2013-11-23,53.1,44.6,31.3,53.1,44.6,31.3,100,100,100,30.41,30.22,16,5,21,0.00
2013-11-24,39.6,30.8,24.1,39.6,30.8,24.1,100,100,100,30.57,30.40,14,3,21,0.00
2013-11-25,36.7,31.3,23.5,36.7,31.3,23.5,100,100,100,30.47,30.19,4,0,6,0.09
2013-11-26,43.6,38.6,34.8,43.6,38.6,34.8,100,100,100,30.19,29.69,12,2,20,1.81
2013-11-27,38.2,32.4,28.6,38.2,32.4,28.6,100,100,100,30.29,29.83,12,3,18,0.05
2013-11-28,45.0,31.9,20.9,45.0,31.9,20.9,100,100,100,30.48,30.29,6,0,8,0.01
2013-11-29,50.6,34.7,21.8,50.6,34.7,21.8,100,100,100,30.60,30.48,6,1,10,0.00
2013-11-30,53.6,37.3,24.7,53.6,37.3,24.6,100,100,100,30.53,30.31,8,0,12,0.00
2013-12-1,54.6,40.4,25.5,54.6,40.4,25.5,100,100,100,30.31,30.02,10,1,14,0.00
2013-12-2,48.8,46.6,44.4,48.8,46.6,44.4,100,100,100,30.02,29.84,4,0,6,0.00
2013-12-3,56.3,50.3,46.1,56.3,50.3,46.1,100,100,100,29.92,29.86,5,0,7,0.03
2013-12-4,68.9,58.2,48.5,68.9,58.2,48.5,100,100,100,30.00,29.91,13,2,21,0.00
2013-12-5,71.7,66.4,60.4,71.7,66.4,60.4,100,100,100,30.05,29.94,15,4,25,0.03
2013-12-6,68.0,47.7,38.9,68.0,47.7,38.8,100,100,100,30.20,29.92,13,3,23,1.72
2013-12-7,39.3,37.7,36.2,39.3,37.7,36.2,100,100,100,30.45,30.20,11,4,15,0.00
2013-12-8,43.7,39.6,35.8,43.7,39.6,35.8,100,100,100,30.36,29.97,7,1,12,1.13
2013-12-9,53.3,46.0,41.0,53.3,46.0,41.0,100,100,100,30.18,30.04,10,1,13,0.65
2013-12-10,41.2,36.5,28.6,41.2,36.5,28.6,100,100,100,30.38,29.97,11,2,21,0.48
2013-12-11,48.1,34.0,21.3,48.1,34.0,21.3,100,100,100,30.46,30.34,9,1,12,0.00
2013-12-12,41.0,32.7,26.1,41.0,32.7,26.1,100,100,100,30.54,30.40,10,2,14,0.00
2013-12-13,48.7,33.5,19.6,48.6,33.5,19.5,100,100,100,30.42,30.16,7,0,12,0.00
2013-12-14,47.4,42.7,38.3,47.3,42.7,38.3,100,100,100,30.18,29.82,12,1,17,0.41
2013-12-15,45.2,36.8,30.8,45.1,36.8,30.8,100,100,100,30.22,29.86,13,2,22,0.00
2013-12-16,49.0,38.3,28.4,49.0,38.3,28.4,100,100,100,30.26,30.12,12,4,20,0.00
2013-12-17,55.6,45.1,36.4,55.6,45.1,36.4,100,100,100,30.26,30.02,17,6,26,0.00
2013-12-18,48.5,37.6,27.5,48.5,37.6,27.5,100,100,100,30.37,30.25,9,2,14,0.00
2013-12-19,54.4,38.4,24.1,54.4,38.4,24.1,100,100,100,30.34,30.18,7,1,12,0.00
2013-12-20,53.5,44.6,32.2,53.5,44.6,32.2,100,100,100,30.22,30.10,5,0,8,0.00
2013-12-21,69.2,57.1,47.8,69.2,57.1,47.8,100,100,100,30.10,29.85,14,1,25,0.04
2013-12-22,68.8,59.9,55.6,68.8,59.9,55.6,100,100,100,30.10,29.86,27,4,40,1.91
2013-12-23,55.6,43.7,34.1,55.6,43.7,34.1,100,100,100,30.37,30.06,13,5,20,0.11
2013-12-24,36.7,32.4,25.9,36.7,32.4,25.9,100,100,100,30.50,30.35,11,3,18,0.00
2013-12-25,44.4,30.8,18.8,44.4,30.8,18.8,100,100,100,30.48,30.33,8,1,12,0.00
2013-12-26,49.2,35.9,27.0,49.2,35.9,27.0,100,100,100,30.42,30.33,7,1,9,0.00
2013-12-27,52.1,35.6,23.5,52.1,35.6,23.5,100,100,100,30.51,30.39,8,0,10,0.00
2013-12-28,42.4,34.7,24.8,42.4,34.7,24.8,100,100,100,30.44,30.02,6,0,9,0.43
2013-12-29,49.4,43.8,40.6,49.4,43.8,40.6,100,100,100,30.08,29.89,10,3,15,1.08
2013-12-30,42.8,38.5,35.6,42.8,38.5,35.6,100,100,100,30.26,30.07,10,2,16,0.00
2013-12-31,45.6,34.0,26.1,45.5,34.0,26.0,100,100,100,30.48,30.25,8,0,10,0.00
2014-1-1,47.1,33.4,21.9,47.1,33.4,21.9,100,100,100,30.39,30.12,11,1,13,0.00
2014-1-2,39.7,33.1,22.0,39.7,33.1,21.9,100,100,100,30.21,29.79,16,2,24,0.40